Flag for U.S.A. Weather past 2 weeks in Vallejo, California, U.S.A.

Now
64 °F

Clear.


Feels Like: 64 °F
Forecast: 60 / 80 °F
Wind: 6 mph from Southwest

Location: Napa County Airport

Current Time: Aug 29, 2014 at 11:33:56 PM

Latest Report: Aug 29, 2014 at 10:54 PM


Visibility: 10 mi

Pressure: 29.86 "Hg

Humidity: 78%

Dew point: 57 °F

Location of VallejoLocation

Historic Weather in Vallejo — Graph

°F

Vallejo temperature yesterday

Maximum temperature yesterday: 81 °F (at 3:54 PM)
Minimum temperature yesterday: 54 °F (at 2:54 AM)
Average temperature yesterday: 65 °F

Past Weeks' High & Low Weather Summary

 TemperatureHumidityPressure
High86 °F (Aug 27, 2:54 PM)100% (Aug 16, 1:54 AM)30.05 "Hg (Aug 16, 1:54 AM)
Low47 °F (Aug 16, 5:56 AM)35% (Aug 27, 2:54 PM)29.76 "Hg (Aug 18, 5:54 PM)
Average64 °F78%29.90 "Hg
* Reported Aug 14 9:54 PM — Aug 29 9:54 PM, Vallejo, Weather by CustomWeather, © 2014

Note: Actual official high and low records may vary slightly from our data, if they occured in-between our weather recording intervals... More about our weather records

Advertising

Vallejo weather history for previous 24 hours

 ConditionsComfort  
Time TempWeatherWind HumidityBarometerVisibility
9:54 PM
Aug 29
64 °FClear.6 mph81%29.85 "Hg10 mi
8:54 PM66 °FClear.7 mph75%29.85 "Hg10 mi
7:54 PM68 °FSunny.10 mph78%29.83 "Hg10 mi
6:54 PM71 °FSunny.10 mph71%29.83 "Hg10 mi
5:54 PM72 °FSunny.10 mph71%29.83 "Hg10 mi
4:54 PM71 °FSunny.17 mph71%29.83 "Hg10 mi
3:54 PM76 °FSunny.13 mph58%29.84 "Hg10 mi
2:54 PM76 °FSunny.13 mph60%29.85 "Hg10 mi
1:54 PM76 °FSunny.6 mph58%29.86 "Hg10 mi
11:54 AM67 °FSunny.5 mph73%29.89 "Hg10 mi
10:54 AM64 °FOvercast.8 mph81%29.93 "Hg10 mi
9:54 AM60 °FLow clouds.No wind90%29.92 "Hg10 mi
8:54 AM59 °FLow clouds.7 mph93%29.92 "Hg10 mi
7:54 AM58 °FLow clouds.10 mph97%29.92 "Hg10 mi
6:54 AM58 °FLow clouds.8 mph97%29.90 "Hg10 mi
5:54 AM58 °FLow clouds.7 mph97%29.90 "Hg10 mi
4:54 AM58 °FLow clouds.9 mph97%29.90 "Hg10 mi
3:54 AM58 °FLow clouds.5 mph97%29.91 "Hg10 mi
2:54 AM57 °FPassing clouds.7 mph96%29.91 "Hg10 mi
1:54 AM57 °FClear.6 mph96%29.91 "Hg10 mi
12:54 AM58 °FClear.8 mph97%29.91 "Hg10 mi
11:54 PM
Aug 28
58 °FClear.3 mph93%29.92 "Hg10 mi
Weather by CustomWeather, © 2014

See weather overviewHow to use our weather pages